Weather History for KHRL - January, 2014

Change the Weather History Date:

Wednesday, January 1, 2014

  Actual Average Record
Temperature  
Mean Temperature 51 °F 59 °F  
Max Temperature 55 °F 70 °F 89 °F (1986)
Min Temperature 46 °F 49 °F 28 °F (1894)
Degree Days  
Heating Degree Days 14 7  
Month to date heating degree days 14 7  
Since 1 July heating degree days 388 255  
Cooling Degree Days 0 2  
Month to date cooling degree days 0 2  
Year to date cooling degree days 0 2  
Moisture  
Dew Point 48 °F    
Average Humidity 93    
Maximum Humidity 100    
Minimum Humidity 86    
Precipitation  
Precipitation 0.01 in 0.02 in 0.72 in (1958)
Month to date precipitation 0.01 0.02  
Year to date precipitation 0.01 0.02  
Sea Level Pressure  
Sea Level Pressure 30.13 in    
Wind  
Wind Speed 8 mph (NW)    
Max Wind Speed 13 mph    
Max Gust Speed 15 mph    
Visibility 6 miles    
Events Fog , Rain    
T = Trace of Precipitation, MM = Missing Value Source: NWS Daily Summary

Daily Weather History Graph

Daily Weather History Graph

Search for Another Location

Airport or City:

Trip Planner

Search our weather history database for the weather conditions in past years. The results will help you decide how hot, cold, wet, or windy it might be!

Date:

Astronomy

Jan. 01, 2014 Rise Set
Actual Time 7:18 AM CST 5:50 PM CST
Civil Twilight 6:53 AM CST 6:15 PM CST
Nautical Twilight 6:24 AM CST 6:44 PM CST
Astronomical Twilight 5:56 AM CST 7:12 PM CST
Moon 7:16 AM CST (1/1) 6:29 PM CST (1/1)
Length of Visible Light 11h 22m
Length of Day
10h 32m
New Moon, 0% of the Moon is Illuminated
Jan 1
New Moon
Jan 7
First Quarter
Jan 15
Full
Jan 23
Last Quarter
Jan 30
New

Hourly Weather History & Observations

Time (CST) Temp. Windchill Dew Point Humidity Pressure Visibility Wind Dir Wind Speed Gust Speed Precip Events Conditions
12:52 AM 46.0 °F 41.9 °F 44.1 °F 93% 30.25 in 10.0 mi NW 8.1 mph - N/A   Overcast
1:52 AM 46.0 °F 42.5 °F 44.1 °F 93% 30.23 in 10.0 mi NW 6.9 mph - 0.00 in Rain Light Rain
1:59 AM 46.4 °F 42.4 °F 44.6 °F 93% 30.23 in 10.0 mi NW 8.1 mph - 0.00 in Rain Light Rain
2:52 AM 46.0 °F 41.4 °F 44.1 °F 93% 30.21 in 10.0 mi NW 9.2 mph - 0.00 in   Overcast
3:39 AM 46.4 °F 42.4 °F 44.6 °F 93% 30.20 in 10.0 mi NW 8.1 mph - N/A   Overcast
3:52 AM 46.0 °F 41.9 °F 44.1 °F 93% 30.19 in 10.0 mi NW 8.1 mph - N/A   Overcast
4:52 AM 46.9 °F - 45.0 °F 93% 30.18 in 10.0 mi WNW 9.2 mph - N/A   Overcast
5:00 AM 46.4 °F 42.4 °F 44.6 °F 93% 30.18 in 10.0 mi NW 8.1 mph - N/A   Overcast
5:52 AM 46.9 °F - 45.0 °F 93% 30.17 in 6.0 mi NW 9.2 mph - 0.00 in   Overcast
6:52 AM 46.9 °F - 45.0 °F 93% 30.16 in 10.0 mi NW 6.9 mph - N/A   Overcast
7:23 AM 46.4 °F 41.9 °F 44.6 °F 93% 30.16 in 9.0 mi NNW 9.2 mph - N/A   Overcast
7:29 AM 48.2 °F - 44.6 °F 87% 30.15 in 8.0 mi North 9.2 mph - N/A   Overcast
7:48 AM 48.2 °F - 44.6 °F 87% 30.16 in 9.0 mi NNW 8.1 mph - N/A   Overcast
7:52 AM 48.0 °F - 45.0 °F 89% 30.16 in 9.0 mi North 6.9 mph - N/A   Overcast
8:11 AM 48.2 °F - 44.6 °F 87% 30.17 in 9.0 mi NNW 9.2 mph - N/A   Overcast
8:52 AM 48.0 °F - 46.0 °F 93% 30.18 in 10.0 mi NNW 8.1 mph - N/A   Overcast
9:52 AM 48.9 °F - 46.0 °F 90% 30.19 in 6.0 mi NNW 9.2 mph - 0.00 in   Overcast
10:52 AM 48.9 °F - 46.9 °F 93% 30.18 in 5.0 mi NW 10.4 mph - 0.00 in Rain Light Rain
11:42 AM 48.2 °F - 46.4 °F 93% 30.15 in 3.0 mi NNW 9.2 mph - 0.00 in   Overcast
11:52 AM 48.9 °F - 48.0 °F 97% 30.15 in 3.0 mi NNW 9.2 mph - 0.00 in   Overcast
12:52 PM 51.1 °F - 48.9 °F 92% 30.11 in 4.0 mi NNW 5.8 mph - N/A   Overcast
1:52 PM 52.0 °F - 50.0 °F 93% 30.07 in 4.0 mi NW 9.2 mph - 0.01 in Rain Light Rain
2:52 PM 53.1 °F - 51.1 °F 93% 30.05 in 9.0 mi NW 10.4 mph - 0.00 in   Overcast
3:52 PM 54.0 °F - 52.0 °F 93% 30.04 in 10.0 mi NW 10.4 mph - 0.00 in   Overcast
4:52 PM 54.0 °F - 52.0 °F 93% 30.03 in 5.0 mi NW 9.2 mph - 0.00 in Rain Light Rain
5:52 PM 53.1 °F - 52.0 °F 96% 30.03 in 3.0 mi NW 6.9 mph - 0.00 in   Overcast
6:52 PM 54.0 °F - 53.1 °F 97% 30.02 in 8.0 mi NNW 6.9 mph - N/A   Overcast
7:52 PM 54.0 °F - 53.1 °F 97% 30.03 in 2.0 mi NNW 5.8 mph - N/A   Overcast
8:05 PM 53.6 °F - 53.6 °F 100% 30.03 in 1.5 mi NW 5.8 mph - N/A   Overcast
8:37 PM 53.6 °F - 53.6 °F 100% 30.03 in 0.8 mi NW 4.6 mph - N/A   Mist
8:52 PM 54.0 °F - 54.0 °F 100% 30.04 in 0.8 mi NW 5.8 mph - N/A   Mist
9:52 PM 55.0 °F - 54.0 °F 96% 30.04 in 0.8 mi NNW 4.6 mph - N/A   Mist
10:52 PM 55.0 °F - 54.0 °F 96% 30.04 in 0.8 mi NNW 4.6 mph - N/A   Mist
11:52 PM 55.0 °F - 54.0 °F 96% 30.05 in 0.5 mi NNW 6.9 mph - N/A Fog Fog